{"data":{"norad_id":69777,"epoch":"2026-09-20T05:04:42.945024Z","epoch_age_seconds":50420,"freshness":"FRESH","line1":"1 69777U 26151Q   26263.21160816  .00001463  00000+0  23820-3 0  9996","line2":"2 69777  51.9015 227.7254 0001538 150.7587 209.3460 14.76584661 12160","mean_motion":14.76584661,"eccentricity":0.0001538,"inclination_deg":51.9015,"raan_deg":227.7254,"arg_perigee_deg":150.7587,"mean_anomaly_deg":209.346,"bstar":0.0002382,"rev_number":1216,"period_min":97.522345858908,"perigee_km":639.04606563622,"apogee_km":641.20488317334,"semimajor_km":7018.2624744048,"source":"CELESTRAK","updated_at":"2026-09-20T09:00:25.092196Z"}}